Location: Kellogg
(38.0159°N, 90.0546°W)
Time: 14:20:51
(UTC+00:00)

Courier 1B - Pass Details

Date: 12 September 2024
Orbit: 962 x 1208 km, 28.3° (Epoch: 07 October)

Event Time Altitude Azimuth Distance (km) Brightness Sun altitude
Rises 22:57:11 0° 254° (WSW) 4,015 12.5 13.9°
Reaches altitude 10° 23:00:08 10° 247° (WSW) 3,082 11.9 13.3°
Maximum altitude 23:07:14 41° 180° (S) 1,666 9.0 11.9°
Drops below altitude 10° 23:14:28 10° 113° (ESE) 3,140 9.7 10.5°
Sets 23:17:29 0° 107° (ESE) 4,098 10.2 9.9°
